sat.trackr.live / text

‹ back to catalog

STARLINK-5632

NORAD 55400 · 2023-014K

PAYLOAD ACTIVE UNKNOWN

§ Identity

Operator
Country
US
Launch date
2023-01-31
Launch site
AFWTR
Launch vehicle
Mass (kg)
RCS (m²)

Purposes: comms

External: N2YO · Heavens-Above · Gunter

§ Orbital elements

Epoch: 2026-05-25T04:29:10.274208Z

Period
96.11 min
Inclination
69.9993°
Eccentricity
0.0003493
Mean motion
14.98330982 rev/d
Perigee alt
569.6 km
Apogee alt
574.5 km
Semi-major
6,950.2 km
B*
3.2468e-5
RAAN
231.5836°
Arg perigee
269.5002°
Mean anomaly
90.5757°
Rev number
18,351

§ Raw data

STARLINK-56321 55400U 23014K   26145.18692447  .00000294  00000+0  32468-4 0  99942 55400  69.9993 231.5836 0003493 269.5002  90.5757 14.98330982183510

JSON: /api/v1/satellites/55400 · /tle

For live sub-satellite position, see the globe view (requires WebGL).

§ Visibility from observer

Set your observer location to see the next 7 days of passes ≥ 10°. The values pass through the URL so the page stays shareable.

No JS? Fill the form by hand. The geolocation button needs JavaScript.